Simultaneous Nadir Overpasses (SNOs) Predictions

Prediction of SNOs between NOAA-21 and METOP-C Satellite Orbit:

Table of predicted SNOs for the next 14.0 days since TLE Epoch: 12/24/2022
Index Date (NOAA-21) Time (NOAA-21) Lat,Lon (NOAA-21) SZA (NOAA-21 ) Date (METOP-C) Time (METOP-C) Lat,Lon (METOP-C) SZA (METOP-C ) Distance(km) Time Diff (sec)
1 01/04/2023 06:39:57 73.39, 70.64 96.30 01/04/2023 06:41:05 73.32, 72.94 96.12 73.65 68
2 01/04/2023 07:30:39 -73.28,-121.81 83.83 01/04/2023 07:31:48 -73.22,-119.97 83.99 59.40 69
3 01/04/2023 08:21:21 73.09, 45.92 95.97 01/04/2023 08:22:32 73.05, 47.00 95.86 35.35 71
4 01/04/2023 09:12:03 -72.99,-146.54 84.16 01/04/2023 09:13:16 -72.89,-146.00 84.29 20.29 73
5 01/04/2023 10:02:45 72.79, 21.18 95.63 01/04/2023 10:03:58 72.83, 21.18 95.65 3.50 73
6 01/04/2023 10:53:29 -72.79,-171.50 84.38 01/04/2023 10:54:39 -72.82,-171.50 84.36 3.33 70
7 01/04/2023 11:44:15 72.80, -4.21 95.63 01/04/2023 11:45:20 72.80, -4.20 95.62 0.47 65
8 01/04/2023 12:34:59 -72.80, 163.12 84.38 01/04/2023 12:36:01 -72.80, 163.12 84.39 0.28 62
9 01/04/2023 13:25:45 72.80, -29.59 95.63 01/04/2023 13:26:42 72.78, -29.59 95.60 2.69 57
10 01/04/2023 14:16:29 -72.80, 137.73 84.38 01/04/2023 14:17:23 -72.78, 137.73 84.42 2.78 54
11 01/04/2023 15:07:14 72.76, -54.88 95.58 01/04/2023 15:08:04 72.76, -54.97 95.57 3.27 50
12 01/04/2023 15:57:57 -72.76, 112.45 84.44 01/04/2023 15:58:44 -72.75, 112.35 84.44 3.41 47
13 01/04/2023 16:48:43 72.76, -80.26 95.57 01/04/2023 16:49:24 72.79, -80.25 95.59 2.44 41
14 01/04/2023 17:39:27 -72.76, 87.06 84.44 01/04/2023 17:40:05 -72.78, 87.07 84.42 2.36 38
15 01/04/2023 18:30:13 72.77,-105.65 95.57 01/04/2023 18:30:46 72.76,-105.64 95.56 0.68 33
16 01/04/2023 19:20:57 -72.77, 61.68 84.44 01/04/2023 19:21:27 -72.76, 61.68 84.45 0.70 30
17 01/04/2023 20:11:43 72.78,-131.03 95.57 01/04/2023 20:12:08 72.74,-131.03 95.53 3.76 25
18 01/04/2023 21:02:27 -72.77, 36.29 84.44 01/04/2023 21:02:49 -72.74, 36.29 84.48 3.76 22
19 01/04/2023 21:53:12 72.73,-156.31 95.52 01/04/2023 21:53:30 72.72,-156.41 95.51 3.51 18
20 01/04/2023 22:43:56 -72.73, 11.01 84.50 01/04/2023 22:44:11 -72.72, 10.91 84.51 3.61 15
21 01/04/2023 23:34:42 72.74, 178.30 95.51 01/04/2023 23:34:51 72.75, 178.31 95.52 1.37 9
22 01/05/2023 00:25:26 -72.73, -14.37 84.50 01/05/2023 00:25:32 -72.74, -14.37 84.49 1.38 6
23 01/05/2023 01:16:12 72.74, 152.91 95.51 01/05/2023 01:16:13 72.73, 152.92 95.50 1.75 1
24 01/05/2023 02:06:56 -72.74, -39.76 84.50 01/05/2023 02:06:54 -72.72, -39.76 84.52 1.69 2
25 01/05/2023 02:57:41 72.70, 127.63 95.46 01/05/2023 02:57:35 72.70, 127.53 95.47 3.41 6
26 01/05/2023 03:48:25 -72.69, -65.04 84.56 01/05/2023 03:48:16 -72.70, -65.14 84.54 3.50 9
27 01/05/2023 04:39:11 72.70, 102.25 95.45 01/05/2023 04:38:56 72.73, 102.25 95.49 3.37 15
28 01/05/2023 05:29:55 -72.70, -90.43 84.56 01/05/2023 05:29:37 -72.73, -90.42 84.52 3.44 18
29 01/05/2023 06:20:41 72.71, 76.86 95.45 01/05/2023 06:20:18 72.71, 76.87 95.46 0.30 23
30 01/05/2023 07:11:25 -72.70,-115.81 84.56 01/05/2023 07:10:59 -72.71,-115.81 84.55 0.38 26
31 01/05/2023 08:02:11 72.71, 51.48 95.45 01/05/2023 08:01:40 72.69, 51.48 95.43 2.85 31
32 01/05/2023 08:52:55 -72.71,-141.20 84.56 01/05/2023 08:52:21 -72.68,-141.20 84.58 2.70 34
33 01/05/2023 09:43:40 72.67, 26.19 95.40 01/05/2023 09:43:02 72.66, 26.09 95.40 3.33 38
34 01/05/2023 10:34:24 -72.66,-166.48 84.62 01/05/2023 10:33:43 -72.66,-166.58 84.61 3.35 41
35 01/05/2023 11:25:10 72.67, 0.81 95.39 01/05/2023 11:24:23 72.69, 0.81 95.42 2.26 47
36 01/05/2023 12:15:54 -72.67, 168.13 84.62 01/05/2023 12:15:04 -72.69, 168.14 84.59 2.43 50
37 01/05/2023 13:06:40 72.68, -24.58 95.39 01/05/2023 13:05:45 72.67, -24.57 95.39 0.86 55
38 01/05/2023 13:57:24 -72.67, 142.75 84.62 01/05/2023 13:56:26 -72.67, 142.75 84.62 0.66 58
39 01/05/2023 14:48:09 72.63, -49.86 95.33 01/05/2023 14:47:07 72.65, -49.96 95.37 3.71 62
40 01/05/2023 15:38:54 -72.68, 117.36 84.62 01/05/2023 15:37:48 -72.64, 117.37 84.65 3.73 66
41 01/05/2023 16:29:39 72.64, -75.24 95.33 01/05/2023 16:28:29 72.62, -75.34 95.34 3.60 70
42 01/05/2023 17:20:23 -72.63, 92.08 84.68 01/05/2023 17:19:10 -72.62, 91.98 84.67 3.50 73
43 01/05/2023 18:11:06 72.49,-100.32 95.17 01/05/2023 18:09:53 72.50,-100.94 95.22 20.58 73
44 01/05/2023 19:01:48 -72.38, 67.21 84.96 01/05/2023 19:00:36 -72.40, 66.19 84.88 34.24 72
45 01/05/2023 19:52:30 72.19,-125.10 94.83 01/05/2023 19:51:21 72.17,-126.92 94.91 62.02 69
46 01/05/2023 20:43:12 -72.08, 42.41 85.29 01/05/2023 20:42:04 -72.07, 40.21 85.19 75.48 68
47 01/05/2023 21:33:54 71.88,-149.90 94.50 01/05/2023 21:32:48 71.89,-152.79 94.66 99.97 66



Historial Predications of SNOs between NOAA-21 and METOP-C
